Location: Asheville, NC
(35.6000°N, 82.5500°W)
Time: 00:13:24
(UTC-04:00)

Oscar 11 - Pass Details

Date: 11 March 2018
Orbit: 613 x 627 km, 97.6° (Epoch: 22 June)

Event Time Altitude Azimuth Distance (km) Brightness Sun altitude
Exits shadow 21:08:38 26° 161° (SSE) 1,220 8.3 -19.9°
Maximum altitude 21:11:01 80° 77° (ENE) 625 6.9 -20.4°
Drops below altitude 10° 21:15:19 10° 351° (N) 1,973 9.9 -21.2°
Sets 21:17:30 0° 350° (N) 2,882 10.8 -21.7°
